Location: Wellington
(41.3000°S, 174.7830°E)
Time: 02:45:29
(UTC+13:00)

ISS - Pass Details

Date: 26 January 2019
Orbit: 403 x 411 km, 51.6° (Epoch: 16 February)

Event Time Altitude Azimuth Distance (km) Brightness Sun altitude
Rises 05:36:58 0° 357° (N) 2,333 -0.3 -7.5°
Reaches altitude 10° 05:40:27 10° 36° (NE) 1,481 -0.9 -7.0°
Maximum altitude 05:41:18 11° 51° (NE) 1,437 -0.8 -6.9°
Drops below altitude 10° 05:42:10 10° 67° (ENE) 1,485 -0.5 -6.7°
Sets 05:45:41 0° 105° (ESE) 2,356 1.8 -6.2°
